Wetterdaten: aktuell Sonntag, 22.04.2018 12:25
Datum Zeit Temp. I. Temp. A. Bodent.-20cm Feuchte I. Feuchte A. BlattFeuchte BodenFeuchte Luftdruck Regen Wind Richtung Richtung Sonnenschein T Regen ET UV Solar Taupunkt Windchill Windben Empfang
22.04.2018 12:25 22,0 C 22,6 C 11,1 C 45 % 51 % 0 lf 38 cb 1014,8 hPa 0,0 mm 3,2 km/h (1 Bft) N-NO 20 60 min 0 min 0,406 mm 4,0 UV-I 585 W/m 11,9 C 22,6 C 8,0 km/h (2 Bft) 97,18 %
22.04.2018 11:25 21,9 C 21,7 C 11,1 C 45 % 53 % 0 lf 38 cb 1015,2 hPa 0,0 mm 3,7 km/h (1 Bft) N 3 60 min 0 min 0,330 mm 3,4 UV-I 625 W/m 11,7 C 21,7 C 8,0 km/h (2 Bft) 97,44 %
22.04.2018 10:25 21,9 C 19,6 C 11,1 C 45 % 57 % 0 lf 38 cb 1015,7 hPa 0,0 mm 5,0 km/h (1 Bft) N-NO 27 55 min 0 min 0,229 mm 2,6 UV-I 530 W/m 10,8 C 19,6 C 8,0 km/h (2 Bft) 97,52 %
22.04.2018 09:25 21,8 C 18,6 C 11,1 C 45 % 61 % 0 lf 38 cb 1015,7 hPa 0,0 mm 2,1 km/h (1 Bft) N-NO 28 40 min 0 min 0,152 mm 1,5 UV-I 292 W/m 10,9 C 18,6 C 4,8 km/h (1 Bft) 97,52 %
22.04.2018 08:25 21,7 C 17,6 C 11,1 C 45 % 66 % 0 lf 38 cb 1015,5 hPa 0,0 mm 2,9 km/h (1 Bft) N 353 15 min 0 min 0,076 mm 0,8 UV-I 234 W/m 11,2 C 17,6 C 6,4 km/h (2 Bft) 96,69 %
22.04.2018 07:25 21,6 C 15,7 C 11,1 C 45 % 70 % 0 lf 38 cb 1015,5 hPa 0,0 mm 0,0 km/h (0 Bft) N 353 0 min 0 min 0,026 mm 0,0 UV-I 117 W/m 10,2 C 15,7 C 0,0 km/h (0 Bft) 98,31 %
22.04.2018 06:25 21,6 C 15,3 C 11,7 C 45 % 71 % 0 lf 38 cb 1015,3 hPa 0,0 mm 2,2 km/h (1 Bft) N 353 0 min 0 min 0,025 mm 0,0 UV-I 14 W/m 10,1 C 15,3 C 4,8 km/h (1 Bft) 99,15 %
22.04.2018 05:25 21,6 C 15,6 C 11,7 C 45 % 70 % 0 lf 38 cb 1015,2 hPa 0,0 mm 5,0 km/h (1 Bft) N 353 0 min 0 min 0,051 mm 0,0 UV-I 0 W/m 10,1 C 15,6 C 8,0 km/h (2 Bft) 100,00 %
22.04.2018 04:25 21,6 C 15,9 C 11,7 C 45 % 67 % 0 lf 38 cb 1015,2 hPa 0,0 mm 6,7 km/h (2 Bft) N 350 0 min 0 min 0,000 mm 0,0 UV-I 0 W/m 9,8 C 15,7 C 11,3 km/h (2 Bft) 100,00 %
22.04.2018 03:25 21,6 C 16,8 C 11,7 C 45 % 63 % 0 lf 38 cb 1015,4 hPa 0,0 mm 1,1 km/h (1 Bft) NW 309 0 min 0 min 0,000 mm 0,0 UV-I 0 W/m 9,7 C 16,8 C 6,4 km/h (2 Bft) 55,56 %
22.04.2018 02:25 21,6 C 17,3 C 11,7 C 45 % 59 % 0 lf 38 cb 1015,3 hPa 0,0 mm 0,5 km/h (0 Bft) NW 324 0 min 0 min 0,000 mm 0,0 UV-I 0 W/m 9,2 C 17,3 C 3,2 km/h (1 Bft) 63,33 %
22.04.2018 01:25 21,6 C 18,3 C 11,7 C 45 % 52 % 0 lf 38 cb 1015,2 hPa 0,0 mm 0,5 km/h (0 Bft) NW 307 0 min 0 min 0,000 mm 0,0 UV-I 0 W/m 8,3 C 18,3 C 3,2 km/h (1 Bft) 51,69 %
22.04.2018 00:25 21,6 C 19,6 C 11,7 C 45 % 47 % 0 lf 38 cb 1014,9 hPa 0,0 mm 0,8 km/h (0 Bft) N 357 0 min 0 min 0,000 mm 0,0 UV-I 0 W/m 8,0 C 19,6 C 3,2 km/h (1 Bft) 51,28 %
21.04.2018 23:25 21,6 C 20,7 C 11,7 C 45 % 44 % 0 lf 37 cb 1014,6 hPa 0,0 mm 0,0 km/h (0 Bft) S-SO 163 0 min 0 min 0,000 mm 0,0 UV-I 0 W/m 8,0 C 20,7 C 0,0 km/h (0 Bft) 48,57 %
21.04.2018 22:25 21,6 C 21,8 C 11,7 C 45 % 40 % 0 lf 37 cb 1014,5 hPa 0,0 mm 0,3 km/h (0 Bft) W 279 0 min 0 min 0,000 mm 0,0 UV-I 0 W/m 7,6 C 21,8 C 1,6 km/h (1 Bft) 50,00 %
21.04.2018 21:25 21,6 C 22,2 C 11,7 C 45 % 42 % 0 lf 37 cb 1014,5 hPa 0,0 mm 2,2 km/h (1 Bft) NW 315 0 min 0 min 0,000 mm 0,0 UV-I 0 W/m 8,7 C 22,2 C 4,8 km/h (1 Bft) 43,59 %
21.04.2018 20:25 21,6 C 23,3 C 11,7 C 45 % 40 % 0 lf 37 cb 1014,2 hPa 0,0 mm 4,4 km/h (1 Bft) W 276 0 min 0 min 0,000 mm 0,0 UV-I 0 W/m 8,9 C 23,3 C 8,0 km/h (2 Bft) 64,96 %
21.04.2018 19:25 21,7 C 24,3 C 11,7 C 45 % 38 % 0 lf 36 cb 1013,9 hPa 0,0 mm 9,0 km/h (2 Bft) W-NW 296 0 min 0 min 0,000 mm 0,0 UV-I 0 W/m 9,1 C 23,6 C 11,3 km/h (2 Bft) 56,41 %
21.04.2018 18:25 21,8 C 27,6 C 11,1 C 45 % 30 % 0 lf 36 cb 1014,1 hPa 0,0 mm 2,3 km/h (1 Bft) N 353 0 min 0 min 0,000 mm 0,0 UV-I 0 W/m 8,4 C 27,6 C 6,4 km/h (2 Bft) 77,12 %
21.04.2018 17:25 21,9 C 28,6 C 11,1 C 45 % 22 % 0 lf 36 cb 1014,4 hPa 0,0 mm 3,1 km/h (1 Bft) NW 312 0 min 0 min 0,000 mm 0,0 UV-I 0 W/m 4,8 C 28,6 C 9,7 km/h (2 Bft) 53,70 %
21.04.2018 16:25 21,9 C 27,7 C 11,1 C 45 % 26 % 0 lf 36 cb 1015,0 hPa 0,0 mm 8,9 km/h (2 Bft) W 280 0 min 0 min 0,000 mm 0,0 UV-I 0 W/m 6,4 C 27,3 C 16,1 km/h (3 Bft) 44,44 %
21.04.2018 15:25 21,8 C 27,3 C 10,6 C 45 % 30 % 0 lf 35 cb 1015,7 hPa 0,0 mm 7,2 km/h (2 Bft) W-NW 292 0 min 0 min 0,000 mm 0,0 UV-I 0 W/m 8,2 C 27,2 C 12,9 km/h (3 Bft) 45,30 %
21.04.2018 14:25 21,7 C 27,1 C 10,6 C 45 % 35 % 0 lf 36 cb 1016,6 hPa 0,0 mm 4,0 km/h (1 Bft) W-SW 247 0 min 0 min 0,000 mm 0,0 UV-I 0 W/m 10,3 C 27,1 C 11,3 km/h (2 Bft) 48,72 %
21.04.2018 13:25 21,6 C 25,2 C 10,6 C 46 % 40 % 0 lf 36 cb 1017,1 hPa 0,0 mm 3,5 km/h (1 Bft) SW 230 0 min 0 min 0,000 mm 0,0 UV-I 0 W/m 10,6 C 25,2 C 9,7 km/h (2 Bft) 48,31 %
21.04.2018 13:00 21,6 C 25,2 C 10,6 C 46 % 38 % 0 lf 36 cb 1017,6 hPa 0,0 mm 4,3 km/h (1 Bft) O-SO 103 0 min 0 min 0,000 mm 0,0 UV-I 0 W/m 9,9 C 25,2 C 12,9 km/h (3 Bft) 47,86 %
_ Min-Zeit 13:00 06:50 13:00 13:30 17:05 13:00 15:20 19:20 - 21:35 - - - - - - - 17:05 06:50 22:55 21:30
Minimum _ 21,6 C 15,1 C 10,6 C 45 % 20 % 0 lf 35 cb 1013,9 hPa - 0,0 km/h (0 Bft) - - - - - - - 2,9 C 15,1 C 0,0 km/h (0 Bft) 37,61 %
_ Max-Zeit 11:40 18:00 19:20 13:00 06:45 13:00 23:55 13:00 13:00 16:35 - - 07:40 13:00 12:05 12:20 12:10 12:15 18:00 16:45 04:05
Maximum _ 22,0 C 28,9 C 11,7 C 46 % 72 % 0 lf 38 cb 1017,6 hPa 0,0 mm 12,7 km/h
NW (3 Bft)
- - 5 min 0 min 0,406 mm 4,0 UV-I 674 W/m 12,1 C 28,9 C 24,1 km/h
W-NW (4 Bft)
100,00 %
Durchschnitt _ 21,7 C 21,5 C 11,3 C 45 % 48 % 0 lf 37 cb 1015,3 hPa #0,0 mm 3,5 km/h (1 Bft) N - #3:50 h #0 min. #1,295 mm 2,2 UV-I 341 W/m 9,2 C 21,4 C 7,6 km/h (2 Bft) 68,81 %